Jaffrey, NH

12:32 AM EDT on September 21, 2017 (GMT -0400)
Jaffrey Airport-Silver Ranch

Weather History for KAFN - June, 2013

Change the Weather History Date:

Thursday, June 27, 2013

  Actual Average Record
Temperature  
Mean Temperature 68 °F -  
Max Temperature 73 °F 77 °F 91 °F (1999)
Min Temperature 63 °F 55 °F 48 °F (2004)
Cooling Degree Days 4    
Growing Degree Days 18 (Base 50)    
Moisture  
Dew Point 64 °F    
Average Humidity 91    
Maximum Humidity 100    
Minimum Humidity 73    
Precipitation  
Precipitation 0.01 in - - ()
Sea Level Pressure  
Sea Level Pressure 29.84 in    
Wind  
Wind Speed 2 mph (South)    
Max Wind Speed 6 mph    
Max Gust Speed -    
Visibility 6 miles    
Events Fog    
Averages and records for this station are not official NWS values.
T = Trace of Precipitation, MM = Missing Value Source: NWS Daily Summary

Daily Weather History Graph

Daily Weather History Graph

Search for Another Location

Airport or City:

Trip Planner

Search our weather history database for the weather conditions in past years. The results will help you decide how hot, cold, wet, or windy it might be!

Date:

Astronomy

Jun. 27, 2013 Rise Set
Actual Time 5:11 AM EDT 8:30 PM EDT
Civil Twilight 4:36 AM EDT 9:05 PM EDT
Nautical Twilight 3:50 AM EDT 9:51 PM EDT
Astronomical Twilight 2:54 AM EDT 10:47 PM EDT
Moon 11:17 PM EDT (6/27) 10:16 AM EDT (6/27)
Length of Visible Light 16h 29m
Length of Day
15h 18m
Waning Gibbous, 76% of the Moon is Illuminated
Jun 27
Waning Gibbous
Jun 30
Last Quarter
Jul 8
New
Jul 15
First Quarter
Jul 22
Full

Hourly Weather History & Observations

Time (EDT) Temp. Dew Point Humidity Pressure Visibility Wind Dir Wind Speed Gust Speed Precip Events Conditions
12:30 AM 66.2 °F 64.4 °F 94% 29.88 in 8.0 mi SSW 3.5 mph - N/A   Overcast
12:52 AM 66.0 °F 64.0 °F 93% 29.88 in 10.0 mi South 3.5 mph - N/A   Overcast
1:52 AM 66.0 °F 64.9 °F 96% 29.88 in 8.0 mi Calm Calm - N/A   Overcast
2:52 AM 66.0 °F 64.9 °F 96% 29.86 in 8.0 mi Calm Calm - N/A   Overcast
3:33 AM 66.2 °F 64.4 °F 94% 29.84 in 6.0 mi Calm Calm - N/A   Overcast
3:52 AM 64.9 °F 64.0 °F 97% 29.84 in 1.8 mi Calm Calm - N/A   Overcast
3:58 AM 64.4 °F 64.4 °F 100% 29.84 in 1.0 mi South 5.8 mph - N/A   Overcast
4:10 AM 64.4 °F 64.4 °F 100% 29.84 in 0.8 mi Calm Calm - N/A   Mist
4:18 AM 66.2 °F 64.4 °F 94% 29.84 in 1.0 mi South 3.5 mph - N/A   Mist
4:32 AM 66.2 °F 64.4 °F 94% 29.84 in 0.5 mi SSE 3.5 mph - N/A Fog Fog
4:52 AM 66.0 °F 64.9 °F 96% 29.85 in 0.5 mi Calm Calm - N/A Fog Fog
5:52 AM 66.0 °F 64.9 °F 96% 29.87 in 0.5 mi Calm Calm - N/A Fog Fog
6:50 AM 66.2 °F 64.4 °F 94% 29.87 in 1.0 mi Calm Calm - N/A   Overcast
6:52 AM 66.0 °F 64.9 °F 96% 29.87 in 1.0 mi Calm Calm - N/A   Overcast
7:00 AM 66.2 °F 64.4 °F 94% 29.87 in 1.5 mi Calm Calm - N/A   Overcast
7:17 AM 64.4 °F 64.4 °F 100% 29.87 in 3.0 mi Calm Calm - N/A   Overcast
7:52 AM 64.9 °F 64.0 °F 97% 29.88 in 10.0 mi Variable 3.5 mph - 0.01 in   Overcast
8:52 AM 66.9 °F 64.0 °F 90% 29.87 in 10.0 mi SSE 4.6 mph - N/A   Overcast
9:14 AM 66.2 °F 64.4 °F 94% 29.87 in 10.0 mi Variable 4.6 mph - N/A   Overcast
9:52 AM 68.0 °F 64.0 °F 87% 29.86 in 10.0 mi Calm Calm - N/A   Overcast
10:52 AM 69.1 °F 64.0 °F 84% 29.86 in 10.0 mi South 5.8 mph - N/A   Overcast
11:21 AM 69.8 °F 64.4 °F 83% 29.86 in 10.0 mi Calm Calm - N/A   Overcast
11:52 AM 72.0 °F 64.9 °F 78% 29.86 in 10.0 mi SSE 4.6 mph - N/A   Overcast
12:52 PM 72.0 °F 64.9 °F 78% 29.84 in 10.0 mi Calm Calm - N/A   Overcast
1:24 PM 73.4 °F 64.4 °F 73% 29.83 in 10.0 mi SSW 5.8 mph - N/A   Overcast
1:52 PM 73.0 °F 64.9 °F 76% 29.84 in 10.0 mi SSW 3.5 mph - N/A   Mostly Cloudy
2:44 PM 73.4 °F 66.2 °F 78% 29.83 in 10.0 mi Variable 3.5 mph - N/A   Mostly Cloudy
2:52 PM 73.9 °F 66.9 °F 79% 29.82 in 10.0 mi Variable 5.8 mph - N/A   Scattered Clouds
3:52 PM 72.0 °F 66.0 °F 81% 29.82 in 10.0 mi Variable 4.6 mph - N/A   Mostly Cloudy
4:47 PM 69.8 °F 64.4 °F 83% 29.81 in 8.0 mi Variable 4.6 mph - N/A   Overcast
4:52 PM 69.1 °F 64.9 °F 87% 29.81 in 7.0 mi Variable 4.6 mph - N/A   Overcast
5:52 PM 69.1 °F 64.9 °F 87% 29.81 in 6.0 mi Variable 3.5 mph - N/A   Overcast
6:15 PM 66.2 °F 64.4 °F 94% 29.81 in 3.0 mi Variable 3.5 mph - N/A   Overcast
6:23 PM 66.2 °F 64.4 °F 94% 29.81 in 2.0 mi Variable 3.5 mph - N/A   Overcast
6:27 PM 66.2 °F 64.4 °F 94% 29.81 in 1.8 mi Calm Calm - N/A   Overcast
6:52 PM 66.0 °F 64.9 °F 96% 29.81 in 1.5 mi Calm Calm - N/A   Overcast
7:14 PM 66.2 °F 64.4 °F 94% 29.80 in 2.5 mi Calm Calm - N/A   Overcast
7:50 PM 64.4 °F 64.4 °F 100% 29.81 in 1.2 mi Variable 5.8 mph - N/A   Overcast
7:52 PM 64.9 °F 64.0 °F 97% 29.82 in 1.2 mi Variable 4.6 mph - N/A   Overcast
7:58 PM 64.4 °F 64.4 °F 100% 29.81 in 0.8 mi Variable 3.5 mph - N/A   Overcast
8:24 PM 64.4 °F 62.6 °F 94% 29.82 in 1.5 mi Calm Calm - N/A   Overcast
8:27 PM 64.4 °F 62.6 °F 94% 29.81 in 3.0 mi ESE 4.6 mph - N/A   Overcast
8:52 PM 64.0 °F 63.0 °F 96% 29.82 in 6.0 mi Calm Calm - N/A   Overcast
9:29 PM 64.4 °F 62.6 °F 94% 29.82 in 10.0 mi Variable 3.5 mph - N/A   Overcast
9:52 PM 64.0 °F 62.1 °F 93% 29.82 in 9.0 mi Variable 3.5 mph - N/A   Overcast
10:52 PM 64.0 °F 62.1 °F 93% 29.80 in 8.0 mi Calm Calm - N/A   Overcast
11:52 PM 63.0 °F 61.0 °F 93% 29.78 in 9.0 mi Calm Calm - N/A   Overcast